Regional Weather Roundup
Issued by NWS Boston, MA

Current Version | Previous Version | Text Only | Print | Product List | Glossary Off
Versions: 1 2 3 4 5 6 7 8 9 10 11 12 13 14 15 16 17 18 19 20 21 22 23 24 25 26 27 28 29 30 31 32 33 34 35 36 37 38 39 40 41 42 43 44 45 46 47 48 49 50
401 ASUS41 KBOX 230610 RWRBOX REGIONAL WEATHER ROUNDUP NATIONAL WEATHER SERVICE TAUNTON MA 200 AM EDT FRI JUN 23 2017 NOTE: "FAIR" INDICATES FEW OR NO CLOUDS BELOW 12,000 FEET WITH NO SIGNIFICANT WEATHER AND/OR OBSTRUCTIONS TO VISIBILITY. MAZALL-230700- EASTERN MASSACHUSETTS CITY SKY/WX TMP DP RH WIND PRES REMARKS BOSTON PTCLDY 73 58 59 SW13 29.85F 6HR MIN TEMP: 72; 6HR MAX TEMP: 81; BEVERLY CLOUDY 67 61 81 CALM 29.85F LAWRENCE CLOUDY 74 60 61 S5 29.86F BEDFORD MOCLDY 70 58 65 SW5 29.84F BLUE HILL N/A 69 55 60 S14 29.87F NORWOOD CLEAR 69 59 70 S6 29.85F MARSHFIELD CLEAR 70 57 64 SW6 29.86F PLYMOUTH CLOUDY 66 56 70 S3 29.88F TAUNTON PTCLDY 69 59 70 S3 29.87F NEW BEDFORD PTCLDY 64 61 90 SW5 29.87F $$ MAZALL-230700- CAPE COD AND THE ISLANDS CITY SKY/WX TMP DP RH WIND PRES REMARKS FALMOUTH CLOUDY 66 64 94 SW7 29.90F HYANNIS CLOUDY 68 63 84 SW7 29.87F CHATHAM CLOUDY 66 64 93 VRB5 29.90F PROVINCETOWN PTCLDY 65 60 84 S9 29.88F NANTUCKET CLOUDY 62 62 100 SW6 29.91F MARTHAS VNYRD PTCLDY 64 62 93 S5 29.89F $$ MAZALL-230700- CENTRAL AND WESTERN MASSACHUSETTS CITY SKY/WX TMP DP RH WIND PRES REMARKS WORCESTER CLOUDY 67 57 70 SW9 29.88F 6HR MIN TEMP: 67; 6HR MAX TEMP: 73; FITCHBURG MOCLDY 72 61 68 SE5 29.85F ORANGE CLOUDY 71 61 70 S7 29.85F SPRINGFIELD MOCLDY 70 59 68 S6 29.84F WESTFIELD NOT AVBL NORTH ADAMS CLOUDY 67 60 78 CALM 29.85F PITTSFIELD PTCLDY 64 61 90 CALM 29.86F $$ RIZALL-230700- RHODE ISLAND CITY SKY/WX TMP DP RH WIND PRES REMARKS PROVIDENCE CLEAR 68 62 81 S5 29.88F 6HR MIN TEMP: 68; 6HR MAX TEMP: 74; NEWPORT CLEAR 66 66 100 VRB5 29.88F BLOCK ISLAND MOCLDY 66 66 100 SW14 29.89F FOG WESTERLY PTCLDY 67 65 93 S3 29.88F FOG $$ CTZALL-230700- CONNECTICUT CITY SKY/WX TMP DP RH WIND PRES REMARKS BRADLEY INTL MOCLDY 69 61 75 S6 29.86F 6HR MIN TEMP: 68; 6HR MAX TEMP: 78; HARTFORD PTCLDY 70 63 78 S3 29.85F BRIDGEPORT CLOUDY 72 67 84 CALM 29.86F DANBURY MOCLDY 68 64 87 CALM 29.88F GROTON CLEAR 66 64 93 CALM 29.87F NEW HAVEN NOT AVBL CHESTER FAIR 68 68 100 SW6 29.88F MERIDEN PTCLDY 67 64 90 S6 29.86F WILLIMANTIC PTCLDY 69 62 78 CALM 29.87F OXFORD MOCLDY 68 61 77 CALM 29.90F $$ MEZ002-015-021-024-NHZ003-005-008-011-012-014-VTZ005-008-230700- NORTHERN NEW ENGLAND CITY SKY/WX TMP DP RH WIND PRES REMARKS PORTLAND ME CLOUDY 62 57 83 CALM 29.84F 6HR MIN TEMP: 60; 6HR MAX TEMP: 69; BANGOR ME PTCLDY 56 54 93 CALM 29.86F CONCORD NH CLOUDY 65 59 81 CALM 29.85F MANCHESTER NH CLOUDY 71 56 58 SW3 29.83F NASHUA NH CLOUDY 70 62 76 CALM 29.85F PORTSMOUTH NH CLOUDY 67 59 73 CALM 29.83F JAFFREY NH CLOUDY 65 62 90 S3 29.88F KEENE NH MOCLDY 65 62 90 CALM 29.85F BURLINGTON VT CLOUDY 72 56 57 S8 29.76F MT. WASHINGTON CLOUDY 48 45 87 W32 N/A $$ NYZ052-076-230700- EASTERN NEW YORK CITY SKY/WX TMP DP RH WIND PRES REMARKS ALBANY CLOUDY 72 62 71 S5 29.81F 6HR MIN TEMP: 69; 6HR MAX TEMP: 78; NEW YORK CITY CLOUDY 81 71 71 S10 29.86F 6HR MIN TEMP: 76; 6HR MAX TEMP: 82; $$ ANZALL-230700- MARINE OBSERVATIONS STATION/POSITION TIME TEMP WIND PRES VSBY WAVE AIR SEA DIR/SP/G HT/PER (UTC) (F) (DEG/KT/KT) (MB) (MI) (FT/S) BOSTON BUOY 0550 65 60 200/ 6/ 8 1011.0F 1/ 9 BUZZARDS BAY 0500 65 210/ 9/ 10 1012.9F NANTUCKET SOUND 0550 64 1012.3F 1 MASS BAY-STELLWA 0504 65 62 190/ 6/ 8 1010.8F ISLE OF SHOALS 0500 73 210/ 12/ 12 1011.0F S OF BLOCK IS 0525 63 N/A 2/ 6 $$ ......................KEY......................... SKY/WX - SKY CONDITION/PRESENT WEATHER TMP - TEMPERATURE IN FAHRENHEIT DWPT - DEWPOINT IN FAHRENHEIT RH - RELATIVE HUMIDITY IN PERCENT WIND - DIRECTION AND SPEED IN MPH PRES - MEAN SEA LEVEL PRESSURE IN INCHES OF HG WCI - WIND CHILL INDEX VSB - VISIBILITY IN MILES HX - HEAT INDEX TC - TEMPERATURE IN CELSIUS VRB - VARIABLE WIND DIRECTION N/A - NOT AVAILABLE

USA.gov is the U.S. government's official web portal to all federal, state and local government web resources and services.